Flag for Canada Weather past 2 weeks in Kitchener, Ontario, Canada

Now
16 °F

Sunny.


Feels Like: 8 °F
Forecast: 6 / 19 °F
Wind: 5 mph from North

Location: Waterloo Well

Current Time: Jan 25, 2015 at 1:21:20 PM

Latest Report: Jan 25, 2015 at 1:00 PM


Visibility: 9 mi

Pressure: 29.96 "Hg

Humidity: 57%

Dew point: 3 °F

Location of KitchenerLocation

Historic Weather in Kitchener — Graph

°F

Kitchener temperature yesterday

Maximum temperature yesterday: 32 °F (at 8:57 PM)
Minimum temperature yesterday: 21 °F (at 12:00 AM)
Average temperature yesterday: 27 °F

Past Weeks' High & Low Weather Summary

 TemperatureHumidityPressure
High41 °F (Jan 17, 11:00 PM)100% (Jan 12, 6:01 AM)30.82 "Hg (Jan 12, 6:01 AM)
Low-11 °F (Jan 13, 8:00 AM)42% (Jan 20, 4:00 PM)29.49 "Hg (Jan 24, 2:59 PM)
Average18 °F81%30.10 "Hg
* Reported Jan 10 12:00 Noon — Jan 25 12:00 Noon, Kitchener, Weather by CustomWeather, © 2014

Note: Actual official high and low records may vary slightly from our data, if they occured in-between our weather recording intervals... More about our weather records

Advertising

Kitchener weather history for previous 24 hours

 ConditionsComfort  
Time TempWeatherWind HumidityBarometerVisibility
12:00 PM
Jan 25
14 °FSunny.9 mph57%29.96 "Hg9 mi
11:00 AM14 °FSunny.8 mph62%29.95 "Hg9 mi
10:00 AM12 °FSunny.10 mph73%29.93 "Hg9 mi
9:00 AM10 °FSunny.8 mph79%29.92 "Hg9 mi
8:00 AM7 °FSunny.7 mph85%29.90 "Hg9 mi
7:00 AM9 °FClear.5 mph85%29.86 "Hg9 mi
6:00 AM10 °FLight snow. Clear.7 mph85%29.83 "Hg9 mi
5:48 AM12 °FLight snow. Clear.9 mph79%29.82 "Hg9 mi
5:00 AM14 °FClear.15 mph79%29.79 "Hg9 mi
4:00 AM18 °FPassing clouds.16 mph79%29.75 "Hg9 mi
3:00 AM23 °FMostly cloudy.12 mph80%29.69 "Hg9 mi
2:02 AM25 °FLight snow. Overcast.9 mph86%29.65 "Hg9 mi
1:00 AM27 °FPassing clouds.10 mph86%29.61 "Hg9 mi
12:56 AM27 °FPassing clouds.14 mph86%29.60 "Hg9 mi
12:00 AM27 °FClear.16 mph80%29.59 "Hg9 mi
11:00 PM
Jan 24
30 °FMostly cloudy.13 mph80%29.57 "Hg9 mi
10:00 PM32 °FLight snow. Overcast.14 mph87%29.55 "Hg9 mi
9:53 PM32 °FLight snow. Mostly cloudy.13 mph87%29.55 "Hg9 mi
9:00 PM32 °FLight snow. Low clouds.13 mph93%29.54 "Hg2 mi
8:57 PM32 °FLight snow. Low clouds.12 mph93%29.54 "Hg2 mi
8:00 PM30 °FLight snow. Low clouds.13 mph93%29.53 "Hg3 mi
7:00 PM30 °FLight snow. Mostly cloudy.10 mph93%29.53 "Hg5 mi
6:00 PM28 °FIce fog.10 mph100%29.52 "Hg3 mi
5:47 PM28 °FIce fog.8 mph93%29.51 "Hg3 mi
5:00 PM28 °FIce fog.13 mph100%29.50 "Hg2 mi
4:00 PM28 °FIce fog.13 mph93%29.49 "Hg2 mi
3:00 PM28 °FIce fog.13 mph93%29.49 "Hg2 mi
2:59 PM28 °FIce fog.14 mph93%29.49 "Hg2 mi
2:00 PM27 °FIce fog.9 mph100%29.50 "Hg1 mi
1:54 PM27 °FIce fog.9 mph100%29.50 "Hg1 mi
1:00 PM27 °FIce fog.12 mph93%29.53 "Hg1 mi
Weather by CustomWeather, © 2014

See weather overviewHow to use our weather pages